Regional Weather Roundup
Issued by NWS

Home | Current Version | Previous Version | Graphics & Text | Print | Product List | Glossary Off
Versions: 1 2 3 4 5 6 7 8 9 10 11 12 13 14 15 16 17 18 19 20 21 22 23 24 25 26 27 28 29 30 31 32 33 34 35 36 37 38 39 40 41 42 43 44 45 46 47 48 49 50

000
ASUS43 KDMX 030107
RWRIA

WEATHER ROUNDUP FOR IOWA
NATIONAL WEATHER SERVICE DES MOINES IA
800 PM CDT SUN AUG 02 2015

NOTE: "FAIR" INDICATES FEW OR NO CLOUDS BELOW 12,000 FEET WITH NO
SIGNIFICANT WEATHER AND/OR OBSTRUCTIONS TO VISIBILITY.

* - THESE STATIONS ARE NOT NWS STATIONS...THUS NOT UNDER NWS
QUALITY CONTROL.  THEY ALSO DO NOT REPORT WEATHER SUCH
AS PRECIPITATION OR FOG.

IAZ001>003-012>014-020>022-031>034-043>046-030200-
   NORTHWEST IOWA

CITY           SKY/WX    TMP DP  RH WIND       PRES   REMARKS
CARROLL *      CLEAR     81  75  83 CALM      29.82R HX  86
CHEROKEE *     CLEAR     79  68  69 NW5       29.82S HX  81
DENISON *      CLEAR     81  73  78 N5        29.81R HX  85
LE MARS *      CLEAR     79  70  73 N6        29.85R HX  81
ORANGE CITY *  CLEAR     79  64  61 N7        29.85R HX  81
SHELDON *      CLEAR     75  66  73 NW7       29.84R
SPENCER        CLEAR     80  61  52 N10       29.84R HX  81
STORM LAKE *   CLEAR     79  70  73 NW7       29.83R HX  81
$$

IAZ055>058-069>071-079>083-090>094-030200-
   SOUTHWEST IOWA

CITY           SKY/WX    TMP DP  RH WIND       PRES   REMARKS
ATLANTIC *     CLEAR     84  77  79 N3        29.82R HX  94
AUDUBON *      CLEAR     82  75  78 N7        29.84R HX  89
CLARINDA *     CLEAR     82  77  83 SE6       29.81R HX  91
COUNCIL BLFS * PTCLDY    84  77  79 NE5       29.82R HX  94
CRESTON *      HVY RAIN  70  57  64 SW8G24    29.87S VSB 3/4
HARLAN  *      CLEAR     81  81 100 CALM      29.86R HX  91
LAMONI         CLOUDY    81  76  84 S9        29.81F HX  87
RED OAK *      CLEAR     84  79  84 W6        29.81S HX  96
SHENANDOAH *   CLEAR     84  77  79 W8        29.79F HX  94
$$

IAZ047>049-059>061-072>074-084-030200-
   CENTRAL IOWA

CITY           SKY/WX    TMP DP  RH WIND       PRES   REMARKS
AMES           CLEAR     82  71  69 NW6       29.78R HX  86
ANKENY *       CLEAR     77  64  65 S5        29.79S
CHARITON *     CLOUDY    68  63  83 S8        29.83F
DES MOINES     MOCLDY    77  64  64 S5        29.79S
GRINNELL*      PTCLDY    79  63  57 W17G25    29.80R HX  80
KNOXVILLE *    CLEAR     75  57  53 SW8G17    29.78F
MARSHALLTOWN   CLEAR     81  73  76 W7        29.77R HX  86
PELLA *        MOCLDY    75  64  69 W5        29.80S
PERRY *          N/A     82  77  83 NW6       29.80R HX  91
$$

IAZ004>006-015-016-023>025-035-036-030200-
   NORTH CENTRAL IOWA

CITY           SKY/WX    TMP DP  RH WIND       PRES   REMARKS
ALGONA *       CLEAR     77  63  61 NW10      29.81R
CLARION *      CLEAR     77  64  65 NW8       29.79R
ESTHERVILLE    CLEAR     75  61  61 N15       29.83R
FORT DODGE *   CLEAR     81  64  57 N5        29.80R HX  82
MASON CITY     CLEAR     77  64  64 NW12      29.79R
FOREST CITY *  CLEAR     75  61  60 NW15G21   29.79R
IOWA FALLS *     N/A     79  70  73 NW5       29.79R HX  81
$$

IAZ007>011-017>019-026>030-037>042-050>054-066-030200-
   NORTHEAST IOWA

CITY           SKY/WX    TMP DP  RH WIND       PRES   REMARKS
CEDAR RAPIDS   CLEAR     81  77  88 W7        29.74R HX  88
CHARLES CITY * CLEAR     77  66  69 NW8       29.76R
CLINTON *      CLEAR     84  73  70 SW14      29.73R HX  91
DECORAH *      MOCLDY    79  63  57 NW13G22   29.72R HX  80
DUBUQUE        CLEAR     82  70  66 W12       29.71R HX  86
MONTICELLO *   CLEAR     84  73  70 W12       29.71R HX  91
OELWEIN *      CLEAR     79  66  65 W6        29.75R HX  81
WATERLOO       CLEAR     81  68  64 NW6       29.74R HX  84
$$

IAZ064-065-067-068-078-030200-
   EAST CENTRAL IOWA

CITY           SKY/WX    TMP DP  RH WIND       PRES   REMARKS
DAVENPORT      PTCLDY    84  74  71 SW9       29.73R HX  91
IOWA CITY      MOCLDY    86  75  69 SW9       29.74R HX  95
MT. PLEASANT * CLOUDY    82  72  69 SW6       29.78R HX  87
MUSCATINE *    CLEAR     86  73  66 SW14      29.74R HX  93
QUAD CITIES    MOCLDY    86  74  67 SW12      29.73R HX  94
$$

IAZ062-063-075>077-085>089-095>099-030200-
   SOUTHEAST IOWA

CITY           SKY/WX    TMP DP  RH WIND       PRES   REMARKS
BURLINGTON     MOCLDY    83  73  72 SW9       29.78R HX  89
FAIRFIELD *    PTCLDY    82  73  74 W8        29.78R HX  88
FORT MADISON * CLEAR     82  72  69 SW7       29.80R HX  87
KEOKUK *       CLEAR     84  73  70 SW8       29.79R HX  91
OSKALOOSA *      N/A     77  72  83 W9        29.80S
CENTERVILLE *  LGT RAIN  68  61  77 SW14G33   29.88R
OTTUMWA        CLOUDY    82  75  79 SW14G21   29.77R HX  89
WASHINGTON *   PTCLDY    82  75  78 SW10G16   29.78R HX  89
$$

ABBREVIATIONS USED IN REMARKS
   TC - TEMPERATURES IN CELSIUS
  WCI - WIND CHILL INDEX
   HX - HEAT INDEX
  VSB - VISIBILITY
$$




USA.gov is the U.S. government's official web portal to all federal, state and local government web resources and services.